Location: Pella
(41.4080°N, 92.9160°W)
Time: 08:04:34
(UTC-05:00)

Iridium 91 - Visible Passes

Search period start: 28 August 2014 00:00
Search period end: 07 September 2014 00:00
Orbit: 776 x 779 km, 86.4° (Epoch: 26 August)

Date Brightness Start Highest point End Pass type
(mag) Time Alt. Az. Time Alt. Az. Time Alt. Az.
28 Aug 7.1 02:31:56 31° NNE 02:31:56 31° NNE 02:34:38 10° N visible
28 Aug 7.7 04:12:25 12° NW 04:12:25 12° NW 04:13:16 10° NW visible
29 Aug 7.6 01:58:40 23° NNE 01:58:40 23° NNE 02:00:50 10° NNE visible
29 Aug 7.5 03:39:09 18° NW 03:39:09 18° NW 03:41:05 10° NNW visible
30 Aug 8.1 01:25:24 15° NE 01:25:24 15° NE 01:26:36 10° NNE visible
30 Aug 7.3 03:05:53 24° NNW 03:05:53 24° NNW 03:08:06 10° N visible
31 Aug 7.4 02:32:36 26° N 02:32:36 26° N 02:34:46 10° N visible
01 Sep 7.7 01:59:19 22° NNE 01:59:19 22° NNE 02:01:08 10° NNE visible
01 Sep 7.9 03:39:47 12° NW 03:39:47 12° NW 03:40:32 10° NW visible
02 Sep 8.1 01:26:01 16° NNE 01:26:01 16° NNE 01:27:11 10° NNE visible
02 Sep 7.7 03:06:30 17° NNW 03:06:30 17° NNW 03:07:56 10° NNW visible
03 Sep 7.7 02:33:12 20° NNW 02:33:12 20° NNW 02:34:47 10° N visible
04 Sep 7.9 01:59:54 19° N 01:59:54 19° N 02:01:20 10° N visible
05 Sep 8.1 01:26:35 16° NNE 01:26:35 16° NNE 01:27:35 10° NNE visible
05 Sep 8.1 03:07:04 12° NNW 03:07:04 12° NNW 03:07:34 10° NNW visible
06 Sep 8.4 00:53:16 11° NNE 00:53:16 11° NNE 00:53:28 10° NNE visible
06 Sep 8.0 02:33:45 15° NNW 02:33:45 15° NNW 02:34:42 10° NNW visible
